SCP
0 0 0 0 0 0 0 0 0 0 0 0 0 0 0 0 0 0 0 0 0 0 0 0 0 0 0 0 0 0 0 0 0 0 0 0 0 0 0 0 0 0 0 0
0 0 0 0 0 0 0 0 0 0 0 0 0 0 0 0 0 0 0 0 0 0 0 0 0 0 0 0 0 0 0 0 0 0 0 0 0 0 0 0 0 0 0 0
0 0 0 0 0 0 0 0 0 0 0 0 0 0 0 0 0 0 0 0 0 0 0 0 0 0 0 0 0 0 0 0 0 0 0 0 0 0 0 0 0 0 0 0
0 0 0 0 0 0 0 0 0 0 0 0 0 0 0 0 0 0 0 0 0 0 0 0 0 0 0 0 0 0 0 0 0 0 0 0 0 0 0 0 0 0 0 0
0 0 0 0 0 0 0 0 0 0 0 0 0 0 0 0 0 0 0 0 0 0 0 0 0 0 0 0 0 0 0 0 0 0 0 0 0 0 0 0 0 0 0 0
0 0 0 0 0 0 0 0 0 0 0 0 0 0 0 0 0 0 0 0 0 0 0 0 0 0 0 0 0 0 0 0 0 0 0 0 0 0 0 0 0 0 0 0
0 0 0 0 0 0 0 0 0 0 0 0 0 0 0 0 0 0 0 0 0 0 0 0 0 0 0 0 0 0 0 0 0 0 0 0 0 0 0 0 0 0 0 0
0 0 0 0 0 0 0 0 0 0 0 0 0 0 0 0 0 0 0 0 0 0 0 0 0 0 0 0 0 0 0 0 0 0 0 0 0 0 0 0 0 0 0 0
0 0 0 0 0 0 0 0 0 0 0 0 0 0 0 0 0 0 0 0 0 0 0 0 0 0 0 0 0 0 0 0 0 0 0 0 0 0 0 0 0 0 0 0
0 0 0 0 0 0 0 0 0 0 0 0 0 0 0 0 0 0 0 0 0 0 0 0 0 0 0 0 0 0 0 0 0 0 0 0 0 0 0 0 0 0 0 0
0 0 0 0 0 0 0 0 0 0 0 0 0 0 0 0 0 0 0 0 0 0 0 0 0 0 0 0 0 0 0 0 0 0 0 0 0 0 0 0 0 0 0 0
0 0 0 0 0 0 0 0 0 0 0 0 0 0 0 0 0 0 0 0 0 0 0 0 0 0 0 0 0 0 0 0 0 0 0 0 0 0 0 0 0 0 0 0
0 0 0 0 0 0 0 0 0 0 0 0 0 0 0 0 0 0 0 0 0 0 0 0 0 0 0 0 0 0 0 0 0 0 0 0 0 0 0 0 0 0 0 0
0 0 0 0 0 0 0 0 0 0 0 0 0 0 0 0 0 0 0 0 0 0 0 0 0 0 0 0 0 0 0 0 0 0 0 0 0 0 0 0 0 0 0 0
0 0 0 0 0 0 0 0 0 0 0 0 0 0 0 0 0 0 0 0 0 0 0 0 0 0 0 0 0 0 0 0 0 0 0 0 0 0 0 0 0 0 0 0
0 0 0 0 0 0 0 0 0 0 0 0 0 0 0 0 0 0 0 0 0 0 0 0 0 0 0 0 0 0 0 0 0 0 0 0 0 0 0 0 0 0 0 0
0 0 0 0 0 0 0 0 0 0 0 0 0 0 0 0 0 0 0 0 0 0 0 0 0 0 0 0 0 0 0 0 0 0 0 0 0 0 0 0 0 0 0 0
0 0 0 0 0 0 0 0 0 0 0 0 0 0 0 0 0 0 0 0 0 0 0 0 0 0 0 0 0 0 0 0 0 0 0 0 0 0 0 0 0 0 0 0
0 0 0 0 0 0 0 0 0 0 0 0 0 0 0 0 0 0 0 0 0 0 0 0 0 0 0 0 0 0 0 0 0 0 0 0 0 0 0 0 0 0 0 0
0 0 0 0 0 0 0 0 0 0 0 0 0 0 0 0 0 0 0 0 0 0 0 0 0 0 0 0 0 0 0 0 0 0 0 0 0 0 0 0 0 0 0 0
0 0 0 0 0 0 0 0 0 0 0 0 0 0 0 0 0 0 0 0 0 0 0 0 0 0 0 0 0 0 0 0 0 0 0 0 0 0 0 0 0 0 0 0
0 0 0 0 0 0 0 0 0 0 0 0 0 0 0 0 0 0 0 0 0 0 0 0 0 0 0 0 0 0 0 0 0 0 0 0 0 0 0 0 0 0 0 0
0 0 0 0 0 0 0 0 0 0 0 0 0 0 0 0 0 0 0 0 0 0 0 0 0 0 0 0 0 0 0 0 0 0 0 0 0 0 0 0 0 0 0 0
0 0 0 0 0 0 0 0 0 0 0 0 0 0 0 0 0 0 0 0 0 0 0 0 0 0 0 0 0 0 0 0 0 0 0 0 0 0 0 0 0 0 0 0
0 0 0 0 0 0 0 0 0 0 0 0 0 0 0 0 0 0 0 0 0 0 0 0 0 0 0 0 0 0 0 0 0 0 0 0 0 0 0 0 0 0 0 0
0 0 0 0 0 0 0 0 0 0 0 0 0 0 0 0 0 0 0 0 0 0 0 0 0 0 0 0 0 0 0 0 0 0 0 0 0 0 0 0 0 0 0 0
0 0 0 0 0 0 0 0 0 0 0 0 0 0 0 0 0 0 0 0 0 0 0 0 0 0 0 0 0 0 0 0 0 0 0 0 0 0 0 0 0 0 0 0
Wind_Speed_500mb
10 16 10 25 30 17 27 39 17 60 28 54 43 22 39 38 8 14 7 16 20 36 49 56 63 67 71 71 72 73 77 79 80 85 85 81 83 87 87 81 78 73 80 90
12 10 12 23 35 33 36 35 29 51 55 42 63 26 8 10 13 9 12 20 37 47 55 63 67 71 70 72 75 75 78 80 84 85 83 84 91 93 97 89 80 74 82 79
12 8 18 18 18 16 9 10 13 14 23 1 5 7 9 13 11 10 20 37 48 56 63 66 68 69 72 74 75 79 82 85 85 84 87 93 96 94 92 84 80 79 76 67
9 12 3 13 2 7 18 19 25 24 26 7 13 19 13 7 5 23 36 48 55 61 64 62 63 67 72 76 80 83 86 86 84 87 95 95 93 90 84 78 73 70 67 60
3 5 21 15 3 8 7 15 18 24 18 17 11 6 3 7 21 32 41 47 53 56 56 60 66 71 77 83 84 87 88 87 88 92 94 94 92 84 81 73 69 72 67 64
6 4 12 7 2 4 6 11 11 8 5 6 2 5 0 9 25 32 39 46 49 48 53 60 67 74 81 85 88 89 88 85 90 90 89 87 79 77 73 68 68 78 66 48
6 8 22 24 18 7 7 12 2 3 7 9 1 1 3 16 26 34 41 44 43 48 56 61 69 77 83 87 87 85 87 90 90 86 83 77 72 72 68 69 59 60 58 57
5 8 21 29 16 13 6 9 11 10 8 7 5 4 10 21 31 38 40 42 46 53 59 65 73 79 83 84 83 85 88 89 88 83 78 74 72 70 63 55 56 58 65 68
25 18 2 36 25 24 26 21 14 13 10 8 5 6 15 25 31 34 35 40 46 55 64 69 75 77 81 79 82 86 87 87 83 78 74 70 65 66 63 58 54 58 71 62
4 38 54 61 67 62 50 32 16 13 14 9 2 7 17 26 29 29 35 43 51 60 67 75 76 77 73 77 80 81 84 83 78 75 74 69 66 64 61 58 56 70 62 63
19 57 62 63 43 39 31 27 20 17 10 3 5 12 19 22 23 30 38 45 54 62 69 73 77 75 73 75 78 79 80 77 74 73 72 73 68 64 59 53 50 58 57 56
22 32 33 21 15 17 26 27 22 16 11 3 8 15 19 19 25 33 42 51 60 66 70 74 72 70 71 72 73 76 77 73 71 71 71 71 74 74 60 53 47 43 41 43
54 47 36 24 13 16 24 28 23 14 6 4 11 15 15 19 26 34 44 55 63 69 71 70 68 68 69 70 70 70 70 67 67 66 67 70 70 72 80 70 57 50 43 41
47 44 30 26 17 23 24 27 21 13 4 9 12 13 15 21 28 37 48 58 63 66 67 68 69 68 68 68 69 67 66 61 60 61 63 64 66 66 68 72 76 72 55 47
36 43 45 28 25 34 31 27 20 10 3 6 8 10 15 23 32 43 52 58 60 63 66 68 67 66 67 68 68 69 65 60 58 60 60 61 64 67 68 69 70 71 70 59
22 20 19 23 38 41 37 29 18 9 2 3 6 10 17 26 36 44 50 56 64 67 66 67 68 68 68 70 70 67 63 57 56 59 61 65 66 69 69 69 68 68 67 66
32 29 35 43 49 46 36 26 17 8 3 1 3 9 19 29 37 42 48 52 56 58 60 64 68 68 68 68 67 65 63 61 59 59 63 65 67 67 67 67 67 67 66 62
42 24 27 30 53 50 41 26 16 10 5 5 3 11 22 30 38 46 51 56 57 56 59 63 65 67 65 64 66 65 63 61 61 64 65 66 66 65 66 66 66 67 68 62
48 29 37 43 46 41 34 24 16 11 10 7 4 14 22 29 36 42 48 53 60 66 67 66 65 64 64 65 65 63 63 66 65 65 65 66 68 66 67 67 68 67 65 63
42 40 44 52 47 36 30 22 17 14 13 7 7 14 19 25 31 38 44 51 57 64 69 70 68 66 66 65 63 65 67 66 66 66 66 67 68 69 70 69 69 67 64 62
50 53 55 52 44 35 26 21 16 17 13 8 7 11 15 22 30 38 44 50 56 62 67 70 71 69 67 67 68 66 65 65 65 66 66 67 69 71 72 72 70 67 65 62
58 59 56 47 39 33 27 23 19 20 14 7 5 8 13 18 24 31 41 49 56 62 67 72 73 69 68 68 67 66 65 64 65 66 67 70 71 73 73 71 69 66 65 62
61 58 52 45 37 30 25 23 20 19 13 5 4 5 10 18 25 33 39 46 52 59 65 69 72 73 71 66 65 65 65 66 68 69 71 70 70 70 71 70 68 67 66 61
63 58 50 44 38 32 29 24 23 22 16 8 5 2 5 11 20 28 36 43 48 53 60 65 69 72 73 70 68 67 68 70 72 73 71 70 69 70 70 69 68 66 64 56
63 58 52 46 40 33 30 26 26 24 18 12 9 5 3 10 18 26 33 39 46 51 55 59 64 68 71 73 74 73 72 72 73 74 73 73 72 72 70 68 66 66 59 55
67 60 50 40 34 34 32 28 28 27 22 17 14 9 5 9 16 23 30 36 43 49 54 59 62 67 70 73 74 75 75 74 74 75 76 75 73 73 70 68 65 63 57 57
64 55 50 46 45 42 37 31 31 30 25 20 18 14 12 12 15 20 27 33 40 47 53 57 61 65 68 71 73 74 74 75 76 75 77 77 74 74 70 68 66 65 60 60
Wind_Direction_500mb
258 252 211 256 257 198 204 235 215 273 261 276 290 289 296 310 325 342 333 311 323 331 329 329 330 332 332 333 335 333 331 329 329 327 327 325 325 323 321 321 312 307 305 307
281 292 254 266 250 238 234 253 257 261 276 275 279 284 296 330 324 355 338 338 338 333 333 335 336 335 335 336 336 334 331 331 330 329 328 327 325 322 320 319 315 308 308 309
267 334 312 296 228 182 190 221 166 212 247 253 303 325 334 342 354 357 351 345 339 338 338 336 337 337 337 337 335 334 334 334 332 331 329 327 323 322 322 321 316 313 313 314
276 342 20 250 213 186 191 243 208 271 270 260 278 305 330 347 48 355 348 344 340 336 333 335 337 337 338 338 338 337 336 335 333 332 327 327 327 328 327 326 324 322 320 325
264 227 292 286 161 138 185 269 236 228 284 297 306 328 43 45 2 349 343 338 334 334 337 339 341 340 340 340 339 338 338 335 334 331 331 333 333 334 332 327 329 329 323 309
71 194 264 251 101 123 170 286 36 175 200 227 197 337 199 336 333 335 334 332 332 339 341 344 343 341 341 340 339 339 336 335 335 337 336 336 337 333 330 334 318 315 321 334
168 256 278 259 218 167 63 290 225 164 215 191 190 138 271 319 329 332 334 338 342 345 347 345 341 341 341 339 340 337 338 338 339 340 340 341 337 334 335 329 342 336 339 343
128 218 274 181 137 191 201 211 211 204 214 207 182 241 311 331 330 335 341 345 346 345 345 343 342 342 340 340 338 339 339 340 342 344 345 345 342 340 343 344 344 344 347 350
189 221 172 202 233 248 271 262 245 227 220 209 213 301 335 330 334 342 346 346 344 343 341 343 343 343 340 340 340 340 341 343 346 348 350 350 345 351 351 353 344 349 344 337
121 252 248 266 265 263 267 263 246 223 206 210 232 340 337 336 343 348 348 346 342 342 341 343 344 345 342 341 340 341 343 346 348 350 351 351 354 354 351 345 342 339 333 334
259 280 274 266 266 266 255 244 218 187 194 203 357 348 345 343 348 350 346 342 342 342 343 344 345 344 342 341 342 344 345 347 349 350 349 350 353 354 348 344 336 330 331 331
250 262 243 259 255 252 232 215 204 191 168 147 2 353 346 354 353 349 344 340 342 344 344 345 344 344 343 344 345 345 346 347 349 348 350 351 350 350 360 355 344 336 333 332
247 261 265 271 256 219 203 188 180 168 138 33 359 354 1 357 352 348 342 340 345 345 344 343 345 345 346 346 346 346 345 346 345 348 350 350 350 350 346 355 359 1 346 339
256 263 257 250 245 195 190 173 160 143 98 8 356 9 1 352 349 346 345 344 345 344 342 344 347 347 347 347 347 347 347 345 344 347 349 347 348 347 347 345 346 350 358 350
260 252 258 267 204 178 175 169 154 138 63 341 5 10 356 352 350 351 346 344 345 346 347 346 346 348 349 348 348 348 347 344 344 347 346 347 346 346 345 344 344 343 347 352
216 222 216 203 183 174 169 163 158 151 190 342 17 5 357 354 354 351 347 348 348 349 349 346 348 350 350 348 349 346 344 345 346 345 345 347 346 344 344 343 343 344 345 345
182 171 184 181 180 174 166 159 159 168 170 96 35 3 0 355 352 354 356 354 351 350 349 348 349 351 350 349 346 346 346 348 346 345 347 346 344 344 343 343 344 344 345 345
232 222 208 209 180 168 165 167 168 161 154 141 50 10 5 357 360 1 -0 357 356 358 353 352 351 351 350 348 348 349 348 347 348 347 345 344 344 344 345 346 347 346 346 346
206 205 181 176 172 164 162 166 166 157 158 146 55 23 6 4 7 7 5 1 1 0 1 356 354 351 351 352 350 349 349 351 347 345 344 344 345 348 348 349 349 349 348 346
181 173 167 163 164 167 164 165 158 161 160 136 52 29 14 10 12 10 7 4 4 2 1 359 355 354 355 355 353 355 353 348 346 345 346 346 348 349 351 353 351 350 350 349
174 167 168 168 165 165 165 162 161 166 166 132 52 40 26 20 11 6 4 6 7 5 4 2 359 357 357 356 359 356 351 349 348 347 348 349 350 352 353 353 353 352 352 350
174 170 170 171 172 172 169 168 173 170 172 142 76 48 33 18 16 11 5 5 8 5 5 5 3 0 359 359 357 355 354 353 351 351 352 353 352 352 353 354 354 354 353 353
177 176 174 176 178 178 177 176 181 178 176 156 106 54 31 11 8 9 10 7 7 7 6 5 4 5 3 358 357 357 357 357 356 356 355 354 353 353 354 355 356 355 355 356
179 180 179 180 184 189 188 185 186 185 188 188 173 143 46 27 360 2 3 5 5 6 7 5 6 7 6 2 360 359 0 1 0 358 356 356 356 356 357 357 358 358 358 360
186 185 186 191 195 196 193 194 193 193 195 205 201 213 337 7 359 357 358 1 1 3 4 4 5 7 7 6 5 3 2 1 1 359 359 359 359 359 360 360 0 0 3 5
191 194 197 202 205 203 203 202 199 199 203 213 211 224 276 327 341 346 350 354 357 359 359 359 1 4 5 7 7 6 5 2 1 2 2 2 1 1 1 2 2 3 3 3
196 197 200 203 205 208 211 210 206 204 208 217 224 227 250 283 311 327 338 345 350 353 354 355 358 360 1 3 5 6 6 6 5 3 4 4 4 3 4 4 4 4 4 3
Wind_Speed_850mb
10 16 10 25 30 17 27 39 17 60 28 54 43 22 39 38 8 14 7 16 20 36 49 56 63 67 71 71 72 73 77 79 80 85 85 81 83 87 87 81 78 73 80 90
12 10 12 23 35 33 36 35 29 51 55 42 63 26 8 10 13 9 12 20 37 47 55 63 67 71 70 72 75 75 78 80 84 85 83 84 91 93 97 89 80 74 82 79
12 8 18 18 18 16 9 10 13 14 23 1 5 7 9 13 11 10 20 37 48 56 63 66 68 69 72 74 75 79 82 85 85 84 87 93 96 94 92 84 80 79 76 67
9 12 3 13 2 7 18 19 25 24 26 7 13 19 13 7 5 23 36 48 55 61 64 62 63 67 72 76 80 83 86 86 84 87 95 95 93 90 84 78 73 70 67 60
3 5 21 15 3 8 7 15 18 24 18 17 11 6 3 7 21 32 41 47 53 56 56 60 66 71 77 83 84 87 88 87 88 92 94 94 92 84 81 73 69 72 67 64
6 4 12 7 2 4 6 11 11 8 5 6 2 5 0 9 25 32 39 46 49 48 53 60 67 74 81 85 88 89 88 85 90 90 89 87 79 77 73 68 68 78 66 48
6 8 22 24 18 7 7 12 2 3 7 9 1 1 3 16 26 34 41 44 43 48 56 61 69 77 83 87 87 85 87 90 90 86 83 77 72 72 68 69 59 60 58 57
5 8 21 29 16 13 6 9 11 10 8 7 5 4 10 21 31 38 40 42 46 53 59 65 73 79 83 84 83 85 88 89 88 83 78 74 72 70 63 55 56 58 65 68
25 18 2 36 25 24 26 21 14 13 10 8 5 6 15 25 31 34 35 40 46 55 64 69 75 77 81 79 82 86 87 87 83 78 74 70 65 66 63 58 54 58 71 62
4 38 54 61 67 62 50 32 16 13 14 9 2 7 17 26 29 29 35 43 51 60 67 75 76 77 73 77 80 81 84 83 78 75 74 69 66 64 61 58 56 70 62 63
19 57 62 63 43 39 31 27 20 17 10 3 5 12 19 22 23 30 38 45 54 62 69 73 77 75 73 75 78 79 80 77 74 73 72 73 68 64 59 53 50 58 57 56
22 32 33 21 15 17 26 27 22 16 11 3 8 15 19 19 25 33 42 51 60 66 70 74 72 70 71 72 73 76 77 73 71 71 71 71 74 74 60 53 47 43 41 43
54 47 36 24 13 16 24 28 23 14 6 4 11 15 15 19 26 34 44 55 63 69 71 70 68 68 69 70 70 70 70 67 67 66 67 70 70 72 80 70 57 50 43 41
47 44 30 26 17 23 24 27 21 13 4 9 12 13 15 21 28 37 48 58 63 66 67 68 69 68 68 68 69 67 66 61 60 61 63 64 66 66 68 72 76 72 55 47
36 43 45 28 25 34 31 27 20 10 3 6 8 10 15 23 32 43 52 58 60 63 66 68 67 66 67 68 68 69 65 60 58 60 60 61 64 67 68 69 70 71 70 59
22 20 19 23 38 41 37 29 18 9 2 3 6 10 17 26 36 44 50 56 64 67 66 67 68 68 68 70 70 67 63 57 56 59 61 65 66 69 69 69 68 68 67 66
32 29 35 43 49 46 36 26 17 8 3 1 3 9 19 29 37 42 48 52 56 58 60 64 68 68 68 68 67 65 63 61 59 59 63 65 67 67 67 67 67 67 66 62
42 24 27 30 53 50 41 26 16 10 5 5 3 11 22 30 38 46 51 56 57 56 59 63 65 67 65 64 66 65 63 61 61 64 65 66 66 65 66 66 66 67 68 62
48 29 37 43 46 41 34 24 16 11 10 7 4 14 22 29 36 42 48 53 60 66 67 66 65 64 64 65 65 63 63 66 65 65 65 66 68 66 67 67 68 67 65 63
42 40 44 52 47 36 30 22 17 14 13 7 7 14 19 25 31 38 44 51 57 64 69 70 68 66 66 65 63 65 67 66 66 66 66 67 68 69 70 69 69 67 64 62
50 53 55 52 44 35 26 21 16 17 13 8 7 11 15 22 30 38 44 50 56 62 67 70 71 69 67 67 68 66 65 65 65 66 66 67 69 71 72 72 70 67 65 62
58 59 56 47 39 33 27 23 19 20 14 7 5 8 13 18 24 31 41 49 56 62 67 72 73 69 68 68 67 66 65 64 65 66 67 70 71 73 73 71 69 66 65 62
61 58 52 45 37 30 25 23 20 19 13 5 4 5 10 18 25 33 39 46 52 59 65 69 72 73 71 66 65 65 65 66 68 69 71 70 70 70 71 70 68 67 66 61
63 58 50 44 38 32 29 24 23 22 16 8 5 2 5 11 20 28 36 43 48 53 60 65 69 72 73 70 68 67 68 70 72 73 71 70 69 70 70 69 68 66 64 56
63 58 52 46 40 33 30 26 26 24 18 12 9 5 3 10 18 26 33 39 46 51 55 59 64 68 71 73 74 73 72 72 73 74 73 73 72 72 70 68 66 66 59 55
67 60 50 40 34 34 32 28 28 27 22 17 14 9 5 9 16 23 30 36 43 49 54 59 62 67 70 73 74 75 75 74 74 75 76 75 73 73 70 68 65 63 57 57
64 55 50 46 45 42 37 31 31 30 25 20 18 14 12 12 15 20 27 33 40 47 53 57 61 65 68 71 73 74 74 75 76 75 77 77 74 74 70 68 66 65 60 60
Wind_Direction_850mb
258 252 211 256 257 198 204 235 215 273 261 276 290 289 296 310 325 342 333 311 323 331 329 329 330 332 332 333 335 333 331 329 329 327 327 325 325 323 321 321 312 307 305 307
281 292 254 266 250 238 234 253 257 261 276 275 279 284 296 330 324 355 338 338 338 333 333 335 336 335 335 336 336 334 331 331 330 329 328 327 325 322 320 319 315 308 308 309
267 334 312 296 228 182 190 221 166 212 247 253 303 325 334 342 354 357 351 345 339 338 338 336 337 337 337 337 335 334 334 334 332 331 329 327 323 322 322 321 316 313 313 314
276 342 20 250 213 186 191 243 208 271 270 260 278 305 330 347 48 355 348 344 340 336 333 335 337 337 338 338 338 337 336 335 333 332 327 327 327 328 327 326 324 322 320 325
264 227 292 286 161 138 185 269 236 228 284 297 306 328 43 45 2 349 343 338 334 334 337 339 341 340 340 340 339 338 338 335 334 331 331 333 333 334 332 327 329 329 323 309
71 194 264 251 101 123 170 286 36 175 200 227 197 337 199 336 333 335 334 332 332 339 341 344 343 341 341 340 339 339 336 335 335 337 336 336 337 333 330 334 318 315 321 334
168 256 278 259 218 167 63 290 225 164 215 191 190 138 271 319 329 332 334 338 342 345 347 345 341 341 341 339 340 337 338 338 339 340 340 341 337 334 335 329 342 336 339 343
128 218 274 181 137 191 201 211 211 204 214 207 182 241 311 331 330 335 341 345 346 345 345 343 342 342 340 340 338 339 339 340 342 344 345 345 342 340 343 344 344 344 347 350
189 221 172 202 233 248 271 262 245 227 220 209 213 301 335 330 334 342 346 346 344 343 341 343 343 343 340 340 340 340 341 343 346 348 350 350 345 351 351 353 344 349 344 337
121 252 248 266 265 263 267 263 246 223 206 210 232 340 337 336 343 348 348 346 342 342 341 343 344 345 342 341 340 341 343 346 348 350 351 351 354 354 351 345 342 339 333 334
259 280 274 266 266 266 255 244 218 187 194 203 357 348 345 343 348 350 346 342 342 342 343 344 345 344 342 341 342 344 345 347 349 350 349 350 353 354 348 344 336 330 331 331
250 262 243 259 255 252 232 215 204 191 168 147 2 353 346 354 353 349 344 340 342 344 344 345 344 344 343 344 345 345 346 347 349 348 350 351 350 350 360 355 344 336 333 332
247 261 265 271 256 219 203 188 180 168 138 33 359 354 1 357 352 348 342 340 345 345 344 343 345 345 346 346 346 346 345 346 345 348 350 350 350 350 346 355 359 1 346 339
256 263 257 250 245 195 190 173 160 143 98 8 356 9 1 352 349 346 345 344 345 344 342 344 347 347 347 347 347 347 347 345 344 347 349 347 348 347 347 345 346 350 358 350
260 252 258 267 204 178 175 169 154 138 63 341 5 10 356 352 350 351 346 344 345 346 347 346 346 348 349 348 348 348 347 344 344 347 346 347 346 346 345 344 344 343 347 352
216 222 216 203 183 174 169 163 158 151 190 342 17 5 357 354 354 351 347 348 348 349 349 346 348 350 350 348 349 346 344 345 346 345 345 347 346 344 344 343 343 344 345 345
182 171 184 181 180 174 166 159 159 168 170 96 35 3 0 355 352 354 356 354 351 350 349 348 349 351 350 349 346 346 346 348 346 345 347 346 344 344 343 343 344 344 345 345
232 222 208 209 180 168 165 167 168 161 154 141 50 10 5 357 360 1 -0 357 356 358 353 352 351 351 350 348 348 349 348 347 348 347 345 344 344 344 345 346 347 346 346 346
206 205 181 176 172 164 162 166 166 157 158 146 55 23 6 4 7 7 5 1 1 0 1 356 354 351 351 352 350 349 349 351 347 345 344 344 345 348 348 349 349 349 348 346
181 173 167 163 164 167 164 165 158 161 160 136 52 29 14 10 12 10 7 4 4 2 1 359 355 354 355 355 353 355 353 348 346 345 346 346 348 349 351 353 351 350 350 349
174 167 168 168 165 165 165 162 161 166 166 132 52 40 26 20 11 6 4 6 7 5 4 2 359 357 357 356 359 356 351 349 348 347 348 349 350 352 353 353 353 352 352 350
174 170 170 171 172 172 169 168 173 170 172 142 76 48 33 18 16 11 5 5 8 5 5 5 3 0 359 359 357 355 354 353 351 351 352 353 352 352 353 354 354 354 353 353
177 176 174 176 178 178 177 176 181 178 176 156 106 54 31 11 8 9 10 7 7 7 6 5 4 5 3 358 357 357 357 357 356 356 355 354 353 353 354 355 356 355 355 356
179 180 179 180 184 189 188 185 186 185 188 188 173 143 46 27 360 2 3 5 5 6 7 5 6 7 6 2 360 359 0 1 0 358 356 356 356 356 357 357 358 358 358 360
186 185 186 191 195 196 193 194 193 193 195 205 201 213 337 7 359 357 358 1 1 3 4 4 5 7 7 6 5 3 2 1 1 359 359 359 359 359 360 360 0 0 3 5
191 194 197 202 205 203 203 202 199 199 203 213 211 224 276 327 341 346 350 354 357 359 359 359 1 4 5 7 7 6 5 2 1 2 2 2 1 1 1 2 2 3 3 3
196 197 200 203 205 208 211 210 206 204 208 217 224 227 250 283 311 327 338 345 350 353 354 355 358 360 1 3 5 6 6 6 5 3 4 4 4 3 4 4 4 4 4 3